Year,Month,Day,Hour,Minute,Value (Times are PST for temperature in C)
2016,06,04,00,00,15.60
2016,06,04,00,01,15.60
2016,06,04,00,02,15.60
2016,06,04,00,03,15.60
2016,06,04,00,04,15.70
2016,06,04,00,05,15.70
2016,06,04,00,06,15.70
2016,06,04,00,07,15.70
2016,06,04,00,08,15.80
2016,06,04,00,09,15.80
2016,06,04,00,10,15.80
2016,06,04,00,11,15.90
2016,06,04,00,12,15.90
2016,06,04,00,13,16.00
2016,06,04,00,14,16.00
2016,06,04,00,15,16.00
2016,06,04,00,16,16.10
2016,06,04,00,17,16.10
2016,06,04,00,18,16.20
2016,06,04,00,19,16.20
2016,06,04,00,20,16.30
2016,06,04,00,21,16.40
2016,06,04,00,22,16.40
2016,06,04,00,23,16.40
2016,06,04,00,24,16.50
2016,06,04,00,25,16.50
2016,06,04,00,26,16.60
2016,06,04,00,27,16.60
2016,06,04,00,28,16.70
2016,06,04,00,29,16.70
2016,06,04,00,30,16.80
2016,06,04,00,31,16.80
2016,06,04,00,32,16.90
2016,06,04,00,33,17.00
2016,06,04,00,34,17.10
2016,06,04,00,35,17.10
2016,06,04,00,36,17.20
2016,06,04,00,37,17.30
2016,06,04,00,38,17.30
2016,06,04,00,39,17.40
2016,06,04,00,40,17.50
2016,06,04,00,41,17.50
2016,06,04,00,42,17.60
2016,06,04,00,43,17.60
2016,06,04,00,44,17.60
2016,06,04,00,45,17.60
2016,06,04,00,46,17.60
2016,06,04,00,47,17.60
2016,06,04,00,48,17.60
2016,06,04,00,49,17.60
2016,06,04,00,50,17.70
2016,06,04,00,51,17.70
2016,06,04,00,52,17.70
2016,06,04,00,53,17.80
2016,06,04,00,54,17.80
2016,06,04,00,55,17.90
2016,06,04,00,56,18.00
2016,06,04,00,57,18.10
2016,06,04,00,58,18.10
2016,06,04,00,59,18.10
2016,06,04,01,00,18.10
2016,06,04,01,01,18.10
2016,06,04,01,02,18.10
2016,06,04,01,03,18.10
2016,06,04,01,04,18.10
2016,06,04,01,05,18.10
2016,06,04,01,06,18.10
2016,06,04,01,07,18.10
2016,06,04,01,08,18.10
2016,06,04,01,09,18.10
2016,06,04,01,10,18.00
2016,06,04,01,11,18.10
2016,06,04,01,12,18.10
2016,06,04,01,13,18.10
2016,06,04,01,14,18.10
2016,06,04,01,15,18.10
2016,06,04,01,16,18.10
2016,06,04,01,17,18.10
2016,06,04,01,18,18.20
2016,06,04,01,19,18.20
2016,06,04,01,20,18.20
2016,06,04,01,21,18.20
2016,06,04,01,22,18.30
2016,06,04,01,23,18.30
2016,06,04,01,24,18.40
2016,06,04,01,25,18.50
2016,06,04,01,26,18.50
2016,06,04,01,27,18.60
2016,06,04,01,28,18.60
2016,06,04,01,29,18.70
2016,06,04,01,30,18.70
2016,06,04,01,31,18.70
2016,06,04,01,32,18.70
2016,06,04,01,33,18.80
2016,06,04,01,34,18.80
2016,06,04,01,35,18.90
2016,06,04,01,36,18.90
2016,06,04,01,37,18.90
2016,06,04,01,38,18.90
2016,06,04,01,39,19.00
2016,06,04,01,40,19.00
2016,06,04,01,41,19.00
2016,06,04,01,42,19.00
2016,06,04,01,43,18.90
2016,06,04,01,44,18.90
2016,06,04,01,45,18.90
2016,06,04,01,46,18.90
2016,06,04,01,47,18.90
2016,06,04,01,48,18.90
2016,06,04,01,49,18.90
2016,06,04,01,50,18.90
2016,06,04,01,51,18.90
2016,06,04,01,52,18.90
2016,06,04,01,53,18.80
2016,06,04,01,54,18.80
2016,06,04,01,55,18.80
2016,06,04,01,56,18.80
2016,06,04,01,57,18.80
2016,06,04,01,58,18.80
2016,06,04,01,59,18.70
2016,06,04,02,00,18.70
2016,06,04,02,01,18.70
2016,06,04,02,02,18.60
2016,06,04,02,03,18.60
2016,06,04,02,04,18.60
2016,06,04,02,05,18.50
2016,06,04,02,06,18.50
2016,06,04,02,07,18.40
2016,06,04,02,08,18.30
2016,06,04,02,09,18.20
2016,06,04,02,10,18.10
2016,06,04,02,11,18.00
2016,06,04,02,12,17.90
2016,06,04,02,13,17.80
2016,06,04,02,14,17.80
2016,06,04,02,15,17.70
2016,06,04,02,16,17.70
2016,06,04,02,17,17.70
2016,06,04,02,18,17.70
2016,06,04,02,19,17.60
2016,06,04,02,20,17.60
2016,06,04,02,21,17.60
2016,06,04,02,22,17.60
2016,06,04,02,23,17.60
2016,06,04,02,24,17.60
2016,06,04,02,25,17.50
2016,06,04,02,26,17.50
2016,06,04,02,27,17.50
2016,06,04,02,28,17.50
2016,06,04,02,29,17.50
2016,06,04,02,30,17.50
2016,06,04,02,31,17.50
2016,06,04,02,32,17.40
2016,06,04,02,33,17.40
2016,06,04,02,34,17.40
2016,06,04,02,35,17.40
2016,06,04,02,36,17.40
2016,06,04,02,37,17.40
2016,06,04,02,38,17.40
2016,06,04,02,39,17.40
2016,06,04,02,40,17.40
2016,06,04,02,41,17.30
2016,06,04,02,42,17.30
2016,06,04,02,43,17.30
2016,06,04,02,44,17.30
2016,06,04,02,45,17.30
2016,06,04,02,46,17.20
2016,06,04,02,47,17.20
2016,06,04,02,48,17.20
2016,06,04,02,49,17.10
2016,06,04,02,50,17.10
2016,06,04,02,51,17.00
2016,06,04,02,52,16.90
2016,06,04,02,53,16.90
2016,06,04,02,54,16.90
2016,06,04,02,55,16.80
2016,06,04,02,56,16.80
2016,06,04,02,57,16.80
2016,06,04,02,58,16.80
2016,06,04,02,59,16.80
2016,06,04,03,00,16.70
2016,06,04,03,01,16.70
2016,06,04,03,02,16.70
2016,06,04,03,03,16.70
2016,06,04,03,04,16.70
2016,06,04,03,05,16.60
2016,06,04,03,06,16.60
2016,06,04,03,07,16.60
2016,06,04,03,08,16.50
2016,06,04,03,09,16.50
2016,06,04,03,10,16.40
2016,06,04,03,11,16.40
2016,06,04,03,12,16.40
2016,06,04,03,13,16.40
2016,06,04,03,14,16.30
2016,06,04,03,15,16.30
2016,06,04,03,16,16.30
2016,06,04,03,17,16.30
2016,06,04,03,18,16.30
2016,06,04,03,19,16.30
2016,06,04,03,20,16.30
2016,06,04,03,21,16.20
2016,06,04,03,22,16.20
2016,06,04,03,23,16.20
2016,06,04,03,24,16.20
2016,06,04,03,25,16.10
2016,06,04,03,26,16.10
2016,06,04,03,27,16.10
2016,06,04,03,28,16.00
2016,06,04,03,29,16.00
2016,06,04,03,30,15.90
2016,06,04,03,31,15.90
2016,06,04,03,32,15.90
2016,06,04,03,33,15.90
2016,06,04,03,34,15.90
2016,06,04,03,35,15.80
2016,06,04,03,36,15.80
2016,06,04,03,37,15.80
2016,06,04,03,38,15.80
2016,06,04,03,39,15.80
2016,06,04,03,40,15.80
2016,06,04,03,41,15.80
2016,06,04,03,42,15.80
2016,06,04,03,43,15.80
2016,06,04,03,44,15.70
2016,06,04,03,45,15.70
2016,06,04,03,46,15.70
2016,06,04,03,47,15.70
2016,06,04,03,48,15.60
2016,06,04,03,49,15.60
2016,06,04,03,50,15.60
2016,06,04,03,51,15.50
2016,06,04,03,52,15.50
2016,06,04,03,53,15.50
2016,06,04,03,54,15.40
2016,06,04,03,55,15.40
2016,06,04,03,56,15.40
2016,06,04,03,57,15.40
2016,06,04,03,58,15.40
2016,06,04,03,59,15.40
2016,06,04,04,00,15.50
2016,06,04,04,01,15.50
2016,06,04,04,02,15.50
2016,06,04,04,03,15.50
2016,06,04,04,04,15.50
2016,06,04,04,05,15.60
2016,06,04,04,06,15.60
2016,06,04,04,07,15.60
2016,06,04,04,08,15.60
2016,06,04,04,09,15.60
2016,06,04,04,10,15.60
2016,06,04,04,11,15.60
2016,06,04,04,12,15.60
2016,06,04,04,13,15.60
2016,06,04,04,14,15.60
2016,06,04,04,15,15.60
2016,06,04,04,16,15.60
2016,06,04,04,17,15.60
2016,06,04,04,18,15.70
2016,06,04,04,19,15.70
2016,06,04,04,20,15.70
2016,06,04,04,21,15.70
2016,06,04,04,22,15.70
2016,06,04,04,23,15.70
2016,06,04,04,24,15.70
2016,06,04,04,25,15.70
2016,06,04,04,26,15.70
2016,06,04,04,27,15.70
2016,06,04,04,28,15.70
2016,06,04,04,29,15.70
2016,06,04,04,30,15.80
2016,06,04,04,31,15.70
2016,06,04,04,32,15.80
2016,06,04,04,33,15.80
2016,06,04,04,34,15.70
2016,06,04,04,35,15.70
2016,06,04,04,36,15.70
2016,06,04,04,37,15.70
2016,06,04,04,38,15.70
2016,06,04,04,39,15.70
2016,06,04,04,40,15.70
2016,06,04,04,41,15.70
2016,06,04,04,42,15.70
2016,06,04,04,43,15.70
2016,06,04,04,44,15.70
2016,06,04,04,45,15.60
2016,06,04,04,46,15.60
2016,06,04,04,47,15.60
2016,06,04,04,48,15.60
2016,06,04,04,49,15.60
2016,06,04,04,50,15.60
2016,06,04,04,51,15.60
2016,06,04,04,52,15.60
2016,06,04,04,53,15.60
2016,06,04,04,54,15.60
2016,06,04,04,55,15.50
2016,06,04,04,56,15.50
2016,06,04,04,57,15.50
2016,06,04,04,58,15.50
2016,06,04,04,59,15.50
2016,06,04,05,00,15.50
2016,06,04,05,01,15.50
2016,06,04,05,02,15.50
2016,06,04,05,03,15.60
2016,06,04,05,04,15.60
2016,06,04,05,05,15.60
2016,06,04,05,06,15.60
2016,06,04,05,07,15.60
2016,06,04,05,08,15.60
2016,06,04,05,09,15.60
2016,06,04,05,10,15.60
2016,06,04,05,11,15.60
2016,06,04,05,12,15.60
2016,06,04,05,13,15.60
2016,06,04,05,14,15.60
2016,06,04,05,15,15.60
2016,06,04,05,16,15.60
2016,06,04,05,17,15.60
2016,06,04,05,18,15.60
2016,06,04,05,19,15.60
2016,06,04,05,20,15.60
2016,06,04,05,21,15.60
2016,06,04,05,22,15.70
2016,06,04,05,23,15.70
2016,06,04,05,24,15.70
2016,06,04,05,25,15.70
2016,06,04,05,26,15.70
2016,06,04,05,27,15.70
2016,06,04,05,28,15.70
2016,06,04,05,29,15.70
2016,06,04,05,30,15.70
2016,06,04,05,31,15.70
2016,06,04,05,32,15.70
2016,06,04,05,33,15.80
2016,06,04,05,34,15.80
2016,06,04,05,35,15.80
2016,06,04,05,36,15.80
2016,06,04,05,37,15.80
2016,06,04,05,38,15.80
2016,06,04,05,39,15.80
2016,06,04,05,40,15.80
2016,06,04,05,41,15.80
2016,06,04,05,42,15.80
2016,06,04,05,43,15.80
2016,06,04,05,44,15.80
2016,06,04,05,45,15.70
2016,06,04,05,46,15.70
2016,06,04,05,47,15.70
2016,06,04,05,48,15.60
2016,06,04,05,49,15.50
2016,06,04,05,50,15.50
2016,06,04,05,51,15.40
2016,06,04,05,52,15.30
2016,06,04,05,53,15.30
2016,06,04,05,54,15.30
2016,06,04,05,55,15.30
2016,06,04,05,56,15.30
2016,06,04,05,57,15.30
2016,06,04,05,58,15.40
2016,06,04,05,59,15.40
2016,06,04,06,00,15.40
2016,06,04,06,01,15.40
2016,06,04,06,02,15.40
2016,06,04,06,03,15.50
2016,06,04,06,04,15.50
2016,06,04,06,05,15.50
2016,06,04,06,06,15.60
2016,06,04,06,07,15.60
2016,06,04,06,08,15.60
2016,06,04,06,09,15.70
2016,06,04,06,10,15.70
2016,06,04,06,11,15.70
2016,06,04,06,12,15.70
2016,06,04,06,13,15.70
2016,06,04,06,14,15.70
2016,06,04,06,15,15.70
2016,06,04,06,16,15.70
2016,06,04,06,17,15.70
2016,06,04,06,18,15.70
2016,06,04,06,19,15.70
2016,06,04,06,20,15.70
2016,06,04,06,21,15.70
2016,06,04,06,22,15.80
2016,06,04,06,23,15.80
2016,06,04,06,24,15.80
2016,06,04,06,25,15.80
2016,06,04,06,26,15.80
2016,06,04,06,27,15.80
2016,06,04,06,28,15.80
2016,06,04,06,29,15.80
2016,06,04,06,30,15.80
2016,06,04,06,31,15.90
2016,06,04,06,32,15.90
2016,06,04,06,33,15.90
2016,06,04,06,34,15.80
2016,06,04,06,35,15.80
2016,06,04,06,36,15.80
2016,06,04,06,37,15.80
2016,06,04,06,38,15.80
2016,06,04,06,39,15.70
2016,06,04,06,40,15.70
2016,06,04,06,41,15.70
2016,06,04,06,42,15.60
2016,06,04,06,43,15.60
2016,06,04,06,44,15.60
2016,06,04,06,45,15.60
2016,06,04,06,46,15.60
2016,06,04,06,47,15.70
2016,06,04,06,48,15.70
2016,06,04,06,49,15.70
2016,06,04,06,50,15.70
2016,06,04,06,51,15.70
2016,06,04,06,52,15.70
2016,06,04,06,53,15.70
2016,06,04,06,54,15.70
2016,06,04,06,55,15.70
2016,06,04,06,56,15.70
2016,06,04,06,57,15.60
2016,06,04,06,58,15.60
2016,06,04,06,59,15.50
2016,06,04,07,00,15.50
2016,06,04,07,01,15.50
2016,06,04,07,02,15.40
2016,06,04,07,03,15.40
2016,06,04,07,04,15.40
2016,06,04,07,05,15.40
2016,06,04,07,06,15.40
2016,06,04,07,07,15.30
2016,06,04,07,08,15.30
2016,06,04,07,09,15.40
2016,06,04,07,10,15.40
2016,06,04,07,11,15.40
2016,06,04,07,12,15.40
2016,06,04,07,13,15.40
2016,06,04,07,14,15.40
2016,06,04,07,15,15.40
2016,06,04,07,16,15.40
2016,06,04,07,17,15.40
2016,06,04,07,18,15.40
2016,06,04,07,19,15.40
2016,06,04,07,20,15.40
2016,06,04,07,21,15.40
2016,06,04,07,22,15.50
2016,06,04,07,23,15.50
2016,06,04,07,24,15.50
2016,06,04,07,25,15.50
2016,06,04,07,26,15.50
2016,06,04,07,27,15.50
2016,06,04,07,28,15.60
2016,06,04,07,29,15.60
2016,06,04,07,30,15.60
2016,06,04,07,31,15.60
2016,06,04,07,32,15.70
2016,06,04,07,33,15.70
2016,06,04,07,34,15.70
2016,06,04,07,35,15.60
2016,06,04,07,36,15.60
2016,06,04,07,37,15.60
2016,06,04,07,38,15.50
2016,06,04,07,39,15.40
2016,06,04,07,40,15.40
2016,06,04,07,41,15.40
2016,06,04,07,42,15.40
2016,06,04,07,43,15.30
2016,06,04,07,44,15.30
2016,06,04,07,45,15.30
2016,06,04,07,46,15.30
2016,06,04,07,47,15.30
2016,06,04,07,48,15.30
2016,06,04,07,49,15.30
2016,06,04,07,50,15.30
2016,06,04,07,51,15.30
2016,06,04,07,52,15.30
2016,06,04,07,53,15.30
2016,06,04,07,54,15.40
2016,06,04,07,55,15.40
2016,06,04,07,56,15.40
2016,06,04,07,57,15.50
2016,06,04,07,58,15.50
2016,06,04,07,59,15.50
2016,06,04,08,00,15.50
2016,06,04,08,01,15.60
2016,06,04,08,02,15.60
2016,06,04,08,03,15.60
2016,06,04,08,04,15.60
2016,06,04,08,05,15.70
2016,06,04,08,06,15.70
2016,06,04,08,07,15.70
2016,06,04,08,08,15.70
2016,06,04,08,09,15.70
2016,06,04,08,10,15.70
2016,06,04,08,11,15.70
2016,06,04,08,12,15.70
2016,06,04,08,13,15.70
2016,06,04,08,14,15.70
2016,06,04,08,15,15.60
2016,06,04,08,16,15.60
2016,06,04,08,17,15.60
2016,06,04,08,18,15.60
2016,06,04,08,19,15.60
2016,06,04,08,20,15.50
2016,06,04,08,21,15.50
2016,06,04,08,22,15.50
2016,06,04,08,23,15.50
2016,06,04,08,24,15.50
2016,06,04,08,25,15.60
2016,06,04,08,26,15.60
2016,06,04,08,27,15.60
2016,06,04,08,28,15.60
2016,06,04,08,29,15.60
2016,06,04,08,30,15.60
2016,06,04,08,31,15.60
2016,06,04,08,32,15.60
2016,06,04,08,33,15.60
2016,06,04,08,34,15.70
2016,06,04,08,35,15.70
2016,06,04,08,36,15.70
2016,06,04,08,37,15.70
2016,06,04,08,38,15.80
2016,06,04,08,39,15.80
2016,06,04,08,40,15.80
2016,06,04,08,41,15.80
2016,06,04,08,42,15.80
2016,06,04,08,43,15.90
2016,06,04,08,44,15.90
2016,06,04,08,45,15.90
2016,06,04,08,46,15.90
2016,06,04,08,47,15.90
2016,06,04,08,48,15.90
2016,06,04,08,49,15.90
2016,06,04,08,50,15.90
2016,06,04,08,51,15.90
2016,06,04,08,52,15.90
2016,06,04,08,53,15.90
2016,06,04,08,54,15.90
2016,06,04,08,55,15.90
2016,06,04,08,56,15.80
2016,06,04,08,57,15.80
2016,06,04,08,58,15.80
2016,06,04,08,59,15.90
2016,06,04,09,00,15.90
2016,06,04,09,01,16.00
2016,06,04,09,02,16.00
2016,06,04,09,03,16.10
2016,06,04,09,04,16.10
2016,06,04,09,05,16.20
2016,06,04,09,06,16.20
2016,06,04,09,07,16.20
2016,06,04,09,08,16.20
2016,06,04,09,09,16.20
2016,06,04,09,10,16.20
2016,06,04,09,11,16.20
2016,06,04,09,12,16.20
2016,06,04,09,13,16.20
2016,06,04,09,14,16.20
2016,06,04,09,15,16.20
2016,06,04,09,16,16.10
2016,06,04,09,17,16.10
2016,06,04,09,18,16.10
2016,06,04,09,19,16.10
2016,06,04,09,20,16.10
2016,06,04,09,21,16.10
2016,06,04,09,22,16.10
2016,06,04,09,23,16.10
2016,06,04,09,24,16.10
2016,06,04,09,25,16.10
2016,06,04,09,26,16.00
2016,06,04,09,27,16.00
2016,06,04,09,28,15.90
2016,06,04,09,29,15.90
2016,06,04,09,30,15.90
2016,06,04,09,31,15.80
2016,06,04,09,32,15.80
2016,06,04,09,33,15.80
2016,06,04,09,34,15.90
2016,06,04,09,35,16.00
2016,06,04,09,36,16.20
2016,06,04,09,37,16.40
2016,06,04,09,38,16.60
2016,06,04,09,39,16.90
2016,06,04,09,40,17.10
2016,06,04,09,41,17.30
2016,06,04,09,42,17.40
2016,06,04,09,43,17.50
2016,06,04,09,44,17.60
2016,06,04,09,45,17.70
2016,06,04,09,46,17.70
2016,06,04,09,47,17.70
2016,06,04,09,48,17.70
2016,06,04,09,49,17.70
2016,06,04,09,50,17.70
2016,06,04,09,51,17.70
2016,06,04,09,52,17.80
2016,06,04,09,53,17.80
2016,06,04,09,54,17.90
2016,06,04,09,55,17.90
2016,06,04,09,56,18.00
2016,06,04,09,57,18.00
2016,06,04,09,58,18.10
2016,06,04,09,59,18.10
2016,06,04,10,00,18.10
2016,06,04,10,01,18.10
2016,06,04,10,02,18.10
2016,06,04,10,03,18.10
2016,06,04,10,04,18.10
2016,06,04,10,05,18.00
2016,06,04,10,06,18.00
2016,06,04,10,07,18.10
2016,06,04,10,08,18.10
2016,06,04,10,09,18.10
2016,06,04,10,10,18.20
2016,06,04,10,11,18.20
2016,06,04,10,12,18.10
2016,06,04,10,13,18.10
2016,06,04,10,14,18.10
2016,06,04,10,15,18.10
2016,06,04,10,16,18.10
2016,06,04,10,17,18.10
2016,06,04,10,18,18.10
2016,06,04,10,19,18.10
2016,06,04,10,20,18.10
2016,06,04,10,21,18.10
2016,06,04,10,22,18.10
2016,06,04,10,23,18.00
2016,06,04,10,24,18.00
2016,06,04,10,25,18.00
2016,06,04,10,26,18.00
2016,06,04,10,27,18.00
2016,06,04,10,28,18.10
2016,06,04,10,29,18.10
2016,06,04,10,30,18.10
2016,06,04,10,31,18.10
2016,06,04,10,32,18.10
2016,06,04,10,33,18.10
2016,06,04,10,34,18.10
2016,06,04,10,35,18.20
2016,06,04,10,36,18.20
2016,06,04,10,37,18.30
2016,06,04,10,38,18.40
2016,06,04,10,39,18.40
2016,06,04,10,40,18.40
2016,06,04,10,41,18.40
2016,06,04,10,42,18.30
2016,06,04,10,43,18.30
2016,06,04,10,44,18.30
2016,06,04,10,45,18.30
2016,06,04,10,46,18.30
2016,06,04,10,47,18.30
2016,06,04,10,48,18.40
2016,06,04,10,49,18.40
2016,06,04,10,50,18.30
2016,06,04,10,51,18.20
2016,06,04,10,52,18.20
2016,06,04,10,53,18.20
2016,06,04,10,54,18.20
2016,06,04,10,55,18.20
2016,06,04,10,56,18.20
2016,06,04,10,57,18.20
2016,06,04,10,58,18.20
2016,06,04,10,59,18.20
2016,06,04,11,00,18.20
2016,06,04,11,01,18.10
2016,06,04,11,02,18.10
2016,06,04,11,03,18.10
2016,06,04,11,04,18.10
2016,06,04,11,05,18.10
2016,06,04,11,06,18.10
2016,06,04,11,07,18.10
2016,06,04,11,08,18.00
2016,06,04,11,09,18.00
2016,06,04,11,10,17.90
2016,06,04,11,11,17.90
2016,06,04,11,12,17.90
2016,06,04,11,13,17.90
2016,06,04,11,14,17.90
2016,06,04,11,15,17.90
2016,06,04,11,16,17.90
2016,06,04,11,17,17.90
2016,06,04,11,18,17.90
2016,06,04,11,19,17.90
2016,06,04,11,20,17.90
2016,06,04,11,21,17.90
2016,06,04,11,22,17.90
2016,06,04,11,23,17.90
2016,06,04,11,24,17.90
2016,06,04,11,25,17.90
2016,06,04,11,26,17.90
2016,06,04,11,27,17.90
2016,06,04,11,28,17.80
2016,06,04,11,29,17.70
2016,06,04,11,30,17.70
2016,06,04,11,31,17.70
2016,06,04,11,32,17.70
2016,06,04,11,33,17.60
2016,06,04,11,34,17.60
2016,06,04,11,35,17.60
2016,06,04,11,36,17.60
2016,06,04,11,37,17.60
2016,06,04,11,38,17.60
2016,06,04,11,39,17.60
2016,06,04,11,40,17.70
2016,06,04,11,41,17.70
2016,06,04,11,42,17.70
2016,06,04,11,43,17.60
2016,06,04,11,44,17.60
2016,06,04,11,45,17.60
2016,06,04,11,46,17.70
2016,06,04,11,47,17.70
2016,06,04,11,48,17.80
2016,06,04,11,49,17.90
2016,06,04,11,50,18.00
2016,06,04,11,51,18.10
2016,06,04,11,52,18.10
2016,06,04,11,53,18.20
2016,06,04,11,54,18.20
2016,06,04,11,55,18.20
2016,06,04,11,56,18.20
2016,06,04,11,57,18.30
2016,06,04,11,58,18.30
2016,06,04,11,59,18.30
2016,06,04,12,00,18.40
2016,06,04,12,01,18.50
2016,06,04,12,02,18.50
2016,06,04,12,03,18.50
2016,06,04,12,04,18.60
2016,06,04,12,05,18.70
2016,06,04,12,06,18.80
2016,06,04,12,07,18.90
2016,06,04,12,08,18.90
2016,06,04,12,09,18.90
2016,06,04,12,10,19.00
2016,06,04,12,11,19.00
2016,06,04,12,12,19.00
2016,06,04,12,13,19.00
2016,06,04,12,14,18.90
2016,06,04,12,15,18.90
2016,06,04,12,16,18.90
2016,06,04,12,17,18.90
2016,06,04,12,18,18.90
2016,06,04,12,19,18.80
2016,06,04,12,20,18.70
2016,06,04,12,21,18.70
2016,06,04,12,22,18.60
2016,06,04,12,23,18.60
2016,06,04,12,24,18.50
2016,06,04,12,25,18.40
2016,06,04,12,26,18.40
2016,06,04,12,27,18.40
2016,06,04,12,28,18.30
2016,06,04,12,29,18.30
2016,06,04,12,30,18.40
2016,06,04,12,31,18.50
2016,06,04,12,32,18.60
2016,06,04,12,33,18.60
2016,06,04,12,34,18.60
2016,06,04,12,35,18.60
2016,06,04,12,36,18.50
2016,06,04,12,37,18.40
2016,06,04,12,38,18.40
2016,06,04,12,39,18.40
2016,06,04,12,40,18.50
2016,06,04,12,41,18.60
2016,06,04,12,42,18.60
2016,06,04,12,43,18.60
2016,06,04,12,44,18.70
2016,06,04,12,45,18.60
2016,06,04,12,46,18.50
2016,06,04,12,47,18.50
2016,06,04,12,48,18.60
2016,06,04,12,49,18.80
2016,06,04,12,50,18.80
2016,06,04,12,51,18.60
2016,06,04,12,52,18.30
2016,06,04,12,53,18.10
2016,06,04,12,54,17.90
2016,06,04,12,55,17.70
2016,06,04,12,56,17.80
2016,06,04,12,57,17.90
2016,06,04,12,58,18.00
2016,06,04,12,59,18.20
2016,06,04,13,00,18.20
2016,06,04,13,01,18.20
2016,06,04,13,02,18.20
2016,06,04,13,03,18.30
2016,06,04,13,04,18.30
2016,06,04,13,05,18.40
2016,06,04,13,06,18.50
2016,06,04,13,07,18.60
2016,06,04,13,08,18.70
2016,06,04,13,09,18.70
2016,06,04,13,10,18.80
2016,06,04,13,11,18.70
2016,06,04,13,12,18.70
2016,06,04,13,13,18.60
2016,06,04,13,14,18.50
2016,06,04,13,15,18.50
2016,06,04,13,16,18.50
2016,06,04,13,17,18.50
2016,06,04,13,18,18.60
2016,06,04,13,19,18.50
2016,06,04,13,20,18.60
2016,06,04,13,21,18.70
2016,06,04,13,22,18.80
2016,06,04,13,23,18.80
2016,06,04,13,24,18.80
2016,06,04,13,25,18.80
2016,06,04,13,26,18.70
2016,06,04,13,27,18.80
2016,06,04,13,28,18.80
2016,06,04,13,29,18.80
2016,06,04,13,30,18.80
2016,06,04,13,31,18.80
2016,06,04,13,32,18.80
2016,06,04,13,33,18.80
2016,06,04,13,34,18.90
2016,06,04,13,35,19.00
2016,06,04,13,36,19.00
2016,06,04,13,37,18.90
2016,06,04,13,38,18.90
2016,06,04,13,39,18.90
2016,06,04,13,40,19.00
2016,06,04,13,41,19.20
2016,06,04,13,42,19.20
2016,06,04,13,43,19.20
2016,06,04,13,44,19.30
2016,06,04,13,45,19.40
2016,06,04,13,46,19.50
2016,06,04,13,47,19.50
2016,06,04,13,48,19.40
2016,06,04,13,49,19.40
2016,06,04,13,50,19.40
2016,06,04,13,51,19.40
2016,06,04,13,52,19.30
2016,06,04,13,53,19.20
2016,06,04,13,54,19.20
2016,06,04,13,55,19.30
2016,06,04,13,56,19.30
2016,06,04,13,57,19.20
2016,06,04,13,58,19.20
2016,06,04,13,59,19.30
2016,06,04,14,00,19.20
2016,06,04,14,01,19.30
2016,06,04,14,02,19.50
2016,06,04,14,03,19.60
2016,06,04,14,04,19.50
2016,06,04,14,05,19.50
2016,06,04,14,06,19.50
2016,06,04,14,07,19.60
2016,06,04,14,08,19.70
2016,06,04,14,09,19.80
2016,06,04,14,10,19.80
2016,06,04,14,11,19.90
2016,06,04,14,12,19.90
2016,06,04,14,13,20.00
2016,06,04,14,14,20.00
2016,06,04,14,15,20.00
2016,06,04,14,16,20.00
2016,06,04,14,17,19.90
2016,06,04,14,18,19.80
2016,06,04,14,19,19.70
2016,06,04,14,20,19.60
2016,06,04,14,21,19.40
2016,06,04,14,22,19.30
2016,06,04,14,23,19.20
2016,06,04,14,24,19.00
2016,06,04,14,25,18.80
2016,06,04,14,26,18.70
2016,06,04,14,27,18.50
2016,06,04,14,28,18.30
2016,06,04,14,29,18.10
2016,06,04,14,30,18.00
2016,06,04,14,31,17.80
2016,06,04,14,32,17.70
2016,06,04,14,33,17.60
2016,06,04,14,34,17.50
2016,06,04,14,35,17.40
2016,06,04,14,36,17.30
2016,06,04,14,37,17.20
2016,06,04,14,38,17.10
2016,06,04,14,39,16.90
2016,06,04,14,40,16.90
2016,06,04,14,41,16.90
2016,06,04,14,42,16.90
2016,06,04,14,43,16.80
2016,06,04,14,44,16.80
2016,06,04,14,45,16.80
2016,06,04,14,46,16.80
2016,06,04,14,47,16.80
2016,06,04,14,48,16.90
2016,06,04,14,49,16.90
2016,06,04,14,50,17.00
2016,06,04,14,51,17.20
2016,06,04,14,52,17.30
2016,06,04,14,53,17.40
2016,06,04,14,54,17.40
2016,06,04,14,55,17.50
2016,06,04,14,56,17.40
2016,06,04,14,57,17.40
2016,06,04,14,58,17.40
2016,06,04,14,59,17.40
2016,06,04,15,00,17.50
2016,06,04,15,01,17.60
2016,06,04,15,02,17.70
2016,06,04,15,03,17.90
2016,06,04,15,04,18.00
2016,06,04,15,05,18.10
2016,06,04,15,06,18.20
2016,06,04,15,07,18.20
2016,06,04,15,08,18.20
2016,06,04,15,09,18.20
2016,06,04,15,10,18.20
2016,06,04,15,11,18.20
2016,06,04,15,12,18.30
2016,06,04,15,13,18.40
2016,06,04,15,14,18.40
2016,06,04,15,15,18.40
2016,06,04,15,16,18.40
2016,06,04,15,17,18.40
2016,06,04,15,18,18.40
2016,06,04,15,19,18.50
2016,06,04,15,20,18.50
2016,06,04,15,21,18.50
2016,06,04,15,22,18.40
2016,06,04,15,23,18.40
2016,06,04,15,24,18.40
2016,06,04,15,25,18.40
2016,06,04,15,26,18.30
2016,06,04,15,27,18.30
2016,06,04,15,28,18.30
2016,06,04,15,29,18.30
2016,06,04,15,30,18.30
2016,06,04,15,31,18.30
2016,06,04,15,32,18.30
2016,06,04,15,33,18.30
2016,06,04,15,34,18.30
2016,06,04,15,35,18.30
2016,06,04,15,36,18.40
2016,06,04,15,37,18.40
2016,06,04,15,38,18.40
2016,06,04,15,39,18.40
2016,06,04,15,40,18.40
2016,06,04,15,41,18.40
2016,06,04,15,42,18.40
2016,06,04,15,43,18.40
2016,06,04,15,44,18.40
2016,06,04,15,45,18.40
2016,06,04,15,46,18.50
2016,06,04,15,47,18.50
2016,06,04,15,48,18.60
2016,06,04,15,49,18.60
2016,06,04,15,50,18.70
2016,06,04,15,51,18.70
2016,06,04,15,52,18.60
2016,06,04,15,53,18.50
2016,06,04,15,54,18.40
2016,06,04,15,55,18.30
2016,06,04,15,56,18.30
2016,06,04,15,57,18.30
2016,06,04,15,58,18.30
2016,06,04,15,59,18.40
2016,06,04,16,00,18.40
2016,06,04,16,01,18.50
2016,06,04,16,02,18.60
2016,06,04,16,03,18.60
2016,06,04,16,04,18.60
2016,06,04,16,05,18.70
2016,06,04,16,06,18.70
2016,06,04,16,07,18.70
2016,06,04,16,08,18.60
2016,06,04,16,09,18.60
2016,06,04,16,10,18.60
2016,06,04,16,11,18.50
2016,06,04,16,12,18.40
2016,06,04,16,13,18.40
2016,06,04,16,14,18.40
2016,06,04,16,15,18.40
2016,06,04,16,16,18.40
2016,06,04,16,17,18.40
2016,06,04,16,18,18.40
2016,06,04,16,19,18.40
2016,06,04,16,20,18.40
2016,06,04,16,21,18.40
2016,06,04,16,22,18.50
2016,06,04,16,23,18.50
2016,06,04,16,24,18.50
2016,06,04,16,25,18.60
2016,06,04,16,26,18.60
2016,06,04,16,27,18.70
2016,06,04,16,28,18.70
2016,06,04,16,29,18.80
2016,06,04,16,30,18.80
2016,06,04,16,31,18.80
2016,06,04,16,32,18.90
2016,06,04,16,33,18.90
2016,06,04,16,34,18.90
2016,06,04,16,35,18.90
2016,06,04,16,36,18.90
2016,06,04,16,37,19.00
2016,06,04,16,38,19.00
2016,06,04,16,39,19.10
2016,06,04,16,40,19.10
2016,06,04,16,41,19.10
2016,06,04,16,42,19.20
2016,06,04,16,43,19.20
2016,06,04,16,44,19.30
2016,06,04,16,45,19.40
2016,06,04,16,46,19.40
2016,06,04,16,47,19.40
2016,06,04,16,48,19.50
2016,06,04,16,49,19.50
2016,06,04,16,50,19.60
2016,06,04,16,51,19.60
2016,06,04,16,52,19.60
2016,06,04,16,53,19.70
2016,06,04,16,54,19.70
2016,06,04,16,55,19.70
2016,06,04,16,56,19.70
2016,06,04,16,57,19.70
2016,06,04,16,58,19.70
2016,06,04,16,59,19.70
2016,06,04,17,00,19.80
2016,06,04,17,01,19.80
2016,06,04,17,02,19.80
2016,06,04,17,03,19.80
2016,06,04,17,04,19.80
2016,06,04,17,05,19.90
2016,06,04,17,06,19.90
2016,06,04,17,07,20.00
2016,06,04,17,08,20.00
2016,06,04,17,09,20.00
2016,06,04,17,10,20.10
2016,06,04,17,11,20.10
2016,06,04,17,12,20.10
2016,06,04,17,13,20.20
2016,06,04,17,14,20.30
2016,06,04,17,15,20.30
2016,06,04,17,16,20.40
2016,06,04,17,17,20.40
2016,06,04,17,18,20.40
2016,06,04,17,19,20.50